Regional Weather Roundup
Issued by NWS Kansas City/Pleasant Hill, MO

Home | Current Version | Previous Version | Text Only | Print | Product List | Glossary On
Versions: 1 2 3 4 5 6 7 8 9 10 11 12 13 14 15 16 17 18 19 20 21 22 23 24 25 26 27 28 29 30 31 32 33 34 35 36 37 38 39 40 41 42 43 44 45 46 47 48 49 50
000
ASUS43 KEAX 262204
RWREAX

WEATHER ROUNDUP FOR EASTERN KANSAS AND NORTHWEST MISSOURI
NATIONAL WEATHER SERVICE KANSAS CITY/PLEASANT HILL MO
500 PM CDT SUN APR 26 2015

KSZ040-057-103>105-MOZ028-029-037-043-262300-
...KANSAS CITY METROPOLITAN AREA...

CITY           SKY/WX    TMP DP  RH WIND       PRES   REMARKS
K.C. INTL      SUNNY     62  41  46 NE14      29.93F
K.C. DOWNTOWN  LGT RAIN  63  40  42 NE15      29.92F
LEES SUMMIT    SUNNY     61  39  44 NE15      29.93F
OLATHE - IXD   SUNNY     60  43  53 E12       29.92F
OLATHE - OJC   MOSUNNY   61  44  53 NE13G21   29.91F
LAWRENCE       SUNNY     62  45  53 E8G17     29.93F

$$

MOZ001>008-011>017-020>025-030>033-038>040-044>046-053-054-262300-
...NORTHERN AND CENTRAL MISSOURI...

CITY           SKY/WX    TMP DP  RH WIND       PRES   REMARKS
ST. JOSEPH     SUNNY     63  39  41 E14G21    29.95F
MOSBY          CLEAR     61  36  39 E12G17    29.94F
WARRENSBURG    SUNNY     63  37  39 NE8       29.92F
WHITEMAN AFB   SUNNY     63  40  43 NE14G22   29.91F
CLINTON        SUNNY     63  45  51 NE14      29.91F
SEDALIA        SUNNY     63  39  41 E13       29.93F
WARSAW         NOT AVBL
MARSHALL       SUNNY     64  39  39 NE8G16    29.95S
CHILLICOTHE      N/A     63  37  38 NE10G20   29.97S
MOBERLY        SUNNY     63  37  39 NE16      29.96F
KIRKSVILLE     SUNNY     61  40  45 NE13      29.97F

$$

MOZ041-047>049-056>058-063>065-088>090-097-262300-
...EASTERN AND SOUTHERN MISSOURI...

CITY           SKY/WX    TMP DP  RH WIND       PRES   REMARKS
ST. LOUIS INTL MOSUNNY   63  34  33 NE13G18   29.93F
SPIRIT OF STL  SUNNY     62  36  37 NE8       29.92S
COLUMBIA       SUNNY     62  37  39 NE16G23   29.93S
JEFFERSON CITY SUNNY     64  33  31 E10G17    29.92S
MEXICO         SUNNY     64  43  45 NE13      29.95F
HANNIBAL       SUNNY     63  27  25 N8G16     29.96F
ROLLA          SUNNY     61  36  39 NE14G20   29.89F
LEBANON        PTSUNNY   59  46  63 E9        29.90F
OSAGE BEACH    SUNNY     64  39  39 NE14G20   29.90S
SPRINGFIELD    CLOUDY    53  44  71 E13       29.89F
BRANSON        CLOUDY    57  48  72 E9        29.88S
NEVADA         MOSUNNY   57  46  67 E12G17    29.92F
JOPLIN         CLOUDY    55  46  71 E12G21    29.87F
WEST PLAINS    MOSUNNY   58  46  64 E6        29.89F

$$

IAZ060-094-KSZ022-034>040-054-083-096-NEZ052-066-093-262300-
...KANSAS...SOUTHEAST NEBRASKA AND IOWA...

CITY           SKY/WX    TMP DP  RH WIND       PRES   REMARKS
TOPEKA         MOSUNNY   61  45  55 E13       29.93F
MANHATTAN      PTSUNNY   58  46  64 E12       29.93F
EMPORIA        MOSUNNY   56  45  66 E20G25    29.89F
CHANUTE        CLOUDY    56  46  69 E15G22    29.87F
WICHITA        CLOUDY    56  46  69 NE21      29.85R
OMAHA          MOSUNNY   63  34  33 E12       30.00F
LINCOLN        SUNNY     63  39  41 E16G23    29.99F
FALLS CITY     SUNNY     63  39  41 E12G21    29.95S
LAMONI         SUNNY     63  34  33 NE20      29.98F
DES MOINES     SUNNY     63  27  25 E10G24    30.01F

$$




USA.gov is the U.S. government's official web portal to all federal, state and local government web resources and services.